Regional Weather Roundup
Issued by NWS

Home | Current Version | Previous Version | Text Only | Print | Product List | Glossary Off
Versions: 1 2 3 4 5 6 7 8 9 10 11 12 13 14 15 16 17 18 19 20 21 22 23 24 25 26 27 28 29 30 31 32 33 34 35 36 37 38 39 40 41 42 43 44 45 46 47 48 49 50

000
ASUS43 KMPX 060610
RWRMN
WEATHER ROUNDUP FOR MINNESOTA
NATIONAL WEATHER SERVICE TWIN CITIES/CHANHASSEN MN
100 AM CDT MON JUL 06 2015


NOTE: "FAIR" INDICATES FEW OR NO CLOUDS BELOW 12,000 FEET WITH NO
SIGNIFICANT WEATHER AND/OR OBSTRUCTIONS TO VISIBILITY. N/A MEANS
CURRENT SKY AND/OR WEATHER CONDITIONS ARE NOT AVAILABLE.

MNZ060>063-068>070-060700-
   Twin Cities Metro

CITY           SKY/WX    TMP DP  RH WIND       PRES   REMARKS
TWIN CITIES    TSTM      77  69  76 S8        29.82S
6HR MIN TEMP:  77; 6HR MAX TEMP:  85; 6HR PCP:  0.02;

ST PAUL        TSTM      74  70  87 VRB6      29.83S FOG
CRYSTAL        LGT RAIN  78  69  73 S8        29.80F
BLAINE         RAIN      75  72  88 CALM      29.82F
LAKEVILLE      CLOUDY    73  66  78 S6        29.82R
EDEN PRAIRIE   LGT RAIN  75  69  81 SE9       29.80S
6HR MIN TEMP:  75; 6HR MAX TEMP:  84; 6HR PCP:  0.06;

SOUTH ST PAUL  CLOUDY    77  67  71 CALM      29.82F
LAKE ELMO      CLOUDY    75  68  78 S5        29.85F
$$
MNZ001>005-007-008-013>017-022>024-027-028-060700-
   Northwest Minnesota

CITY           SKY/WX    TMP DP  RH WIND       PRES   REMARKS
BEMIDJI        PTCLDY    64  62  93 N5        29.90R
HALLOCK        MOCLDY    63  57  82 N12       29.92R FOG
ROSEAU         MOCLDY    61  55  82 NW7       29.91R HAZE
WARROAD          N/A     61  57  88 NW7       29.90R FOG
THIEF RVR FALL CLOUDY    63  59  88 NW7       29.90S
CROOKSTON      CLOUDY    64  61  88 N7        29.90S FOG
FOSSTON          N/A     61  61 100 CALM      29.91R FOG
DETROIT LAKES  PTCLDY    66  63  88 N5        29.90R
MOORHEAD       CLOUDY    66  61  82 N10       29.89S HAZE
PARK RAPIDS    CLOUDY    69  63  81 N9        29.89R
MAHNOMEN       FAIR      65  63  95 N7        29.90R
$$
MNZ006-009>011-018-025>026-060700-
   North Central Minnesota

CITY           SKY/WX    TMP DP  RH WIND       PRES   REMARKS
BAUDETTE       CLOUDY    64  58  80 N7        29.87R HAZE
FLAG ISLAND      N/A     64  59  82 N22G28    29.87R HAZE
INTL FALLS     CLOUDY    57  56  96 CALM      29.87R FOG
6HR MIN TEMP:  57; 6HR MAX TEMP:  73;

WASKISH        PTCLDY    64  61  88 CALM      29.90R FOG
BIG FORK       CLEAR     61  59  94 CALM      29.88R FOG
LONGVILLE      MOCLDY    66  64  94 N6        29.88R
GRAND RAPIDS   CLEAR     64  61  88 N7        29.88R
CRANE LAKE     PTCLDY    61  57  88 NW3       29.88R
COOK           PTCLDY    63  61  94 NW3       29.87R
WALKER         CLOUDY    65  64  96 N3        29.90R
$$
MNZ012-019>021-037-060700-
   Northeast Minnesota

CITY           SKY/WX    TMP DP  RH WIND       PRES   REMARKS
DULUTH         CLOUDY    67  65  93 SW3       29.86S
6HR MIN TEMP:  66; 6HR MAX TEMP:  80; 6HR PCP:  0.99;

ELY            MOCLDY    64  63  94 W5        29.86R
HIBBING        MOCLDY    64  63  96 CALM      29.86R
DULUTH HARBOR  DRIZZLE   66  66 100 SW8       29.85R
TWO HARBORS    CLOUDY    70  64  83 W7        29.85R
SILVER BAY     CLOUDY    66  64  94 CALM      29.82R
GRAND MARAIS     N/A     58  57  97 W3        29.79R
G MARAIS ARPRT CLOUDY    63  61  94 SW5       29.84R FOG
$$
MNZ029>031-032-039>041-046>048-054>057-064-060700-
   West Central Minnesota

CITY           SKY/WX    TMP DP  RH WIND       PRES   REMARKS
FERGUS FALLS   CLOUDY    70  64  83 N8        29.86S
WHEATON        CLOUDY    66  64  94 N13G18    29.85F
MORRIS         CLOUDY    70  68  94 N10       29.79F
ALEXANDRIA     LGT RAIN  70  67  90 N14       29.84F
ELBOW LAKE     FAIR      70  66  88 N12       29.83F
WADENA         MOCLDY    68  64  88 N10       29.87S
GLENWOOD       CLOUDY    70  66  88 N6        29.84F
APPLETON       CLOUDY    72  68  88 N7        29.80R
BENSON         CLOUDY    70  64  83 CALM      29.80F
ORTONVILLE     CLOUDY    70  64  83 N13       29.81R
MADISON        CLOUDY    72  68  88 N10       29.80R
WILLMAR        FAIR      72  70  94 N7        29.81F
$$
MNZ033>034-036-042>043-049>051-058-059-060700-
   Central Minnesota

CITY           SKY/WX    TMP DP  RH WIND       PRES   REMARKS
ST CLOUD       TSTM      70  69  97 NW7       29.82F FOG
6HR MIN TEMP:  69; 6HR MAX TEMP:  84; 6HR PCP:  1.40;

SAUK CENTRE    MOCLDY    70  67  88 N14G24    29.82F
PAYNESVILLE    LGT RAIN  67  66  98 W5        29.83S
AITKIN         MOCLDY    66  61  82 CALM      29.85R
PINE RIVER       N/A     70  68  94 NW5       29.90S
BRAINERD       CLOUDY    68  67  96 E3        29.86R
STAPLES        CLOUDY    68  66  94 N5        29.87R
LONG PRAIRIE   HVY RAIN  70  66  88 NW9       29.87F
LITTLE FALLS   HVY RAIN  68  64  88 CALM      29.83F
LITCHFIELD     CLOUDY    73  72  94 NW8       29.83R
BUFFALO        RAIN      74  69  85 CALM      29.81F
MAPLE LAKE     CLOUDY    72  70  92 N6        29.83R
$$
MNZ037-044-045-052-053-060700-
   East Central Minnesota

CITY           SKY/WX    TMP DP  RH WIND       PRES   REMARKS
PRINCETON      CLOUDY    72  70  94 N6        29.83R
MORA           CLOUDY    64  63  94 CALM      29.86F
CAMBRIDGE      CLOUDY    77  66  69 N12G17    29.82R
RUSH CITY      CLOUDY    71  67  85 N14G21    29.87R THUNDER
MOOSE LAKE     LGT RAIN  68  64  88 SE3       29.86R
HINCKLEY       RAIN      68  68 100 SE7       29.86F
CLOQUET        LGT RAIN  66  64  94 S3        29.88R
MCGREGOR       CLOUDY    68  66  94 CALM      29.87R
$$
MNZ071>073-080-081-089-090-097-098-060700-
   Southwest Minnesota

CITY           SKY/WX    TMP DP  RH WIND       PRES   REMARKS
GRANITE FALLS  CLOUDY    70  67  92 NW5       29.79F
CANBY          CLOUDY    70  68  94 N9        29.80F
MARSHALL       CLOUDY    70  64  83 N3          N/A
REDWOOD FALLS  CLOUDY    73  69  87 N7        29.79R
OLIVIA         TSTM      68  63  83 N5        29.78F
PIPESTONE      TSTM      70  66  88 E7        29.80F
WINDOM         CLOUDY    77  70  78 S9        29.78R
WORTHINGTON    CLOUDY    75  66  73 S12G17    29.77F
JACKSON        CLOUDY    77  70  78 S13G18    29.79R
TRACY            N/A     72  70  94 N15G31    29.82R VSB 1/2
SLAYTON        RAIN      69  67  93 NW10G21   29.84R
$$
MNZ065>067-074>077-082>085-091>093-060700-
   South Central Minnesota

CITY           SKY/WX    TMP DP  RH WIND       PRES   REMARKS
MANKATO        CLOUDY    75  66  73 S9        29.79R
NEW ULM        CLOUDY    75  70  83 SE9       29.77S
ST JAMES       CLOUDY    77  72  83 SE7       29.79R
FAIRMONT       CLOUDY    73  64  73 S14       29.79R
GLENCOE        CLOUDY    76  72  88 SE5       29.78F
FARIBAULT      CLOUDY    75  68  78 S9        29.82S
OWATONNA       CLOUDY    75  66  73 S14       29.82F
WASECA         CLOUDY    73  64  73 S12G20    29.82S
ALBERT LEA     CLOUDY    75  66  73 S13G18    29.82S
$$
MNZ078>079-086>088-094>096-060700-
   Southeast Minnesota

CITY           SKY/WX    TMP DP  RH WIND       PRES   REMARKS
ROCHESTER      CLOUDY    72  67  84 S13       29.86F
6HR MIN TEMP:  72; 6HR MAX TEMP:  80;

RED WING       CLOUDY    77  66  69 S7        29.82F
STANTON        CLOUDY    73  68  83 S8        29.81S
DODGE CENTER   CLOUDY    73  66  78 S15G21    29.85S
WINONA         PTCLDY    73  64  73 SE3       29.89R
AUSTIN         CLOUDY    73  66  78 S12G17    29.84F
PRESTON        MOCLDY    70  66  88 S12       29.89S FOG
$$
ABBREVIATIONS USED IN REMARKS
   TC - TEMPERATURES IN CELSIUS
  WCI - WIND CHILL INDEX
   HX - HEAT INDEX
  VSB - VISIBILITY
$$



USA.gov is the U.S. government's official web portal to all federal, state and local government web resources and services.